Temp
7 7 7 7 8 8 8 7 7 7 8 8 8 7 7 6 5 5 5 4 3 3 2 1 1 1 1 0 0 -1 -2 -3 -3 -4 -4 -6 -8 -7 -8 -9 -8 -8 -8 -10
5 6 6 6 6 7 7 8 7 7 8 8 7 7 6 6 5 4 4 4 4 3 2 1 1 0 1 -0 -1 -1 -2 -3 -4 -4 -5 -6 -8 -8 -9 -8 -8 -9 -10 -12
4 4 5 5 6 6 6 7 7 7 7 7 6 5 4 4 4 3 4 3 3 2 1 1 1 0 -0 -1 -2 -2 -3 -3 -4 -5 -5 -10 -9 -10 -10 -9 -9 -10 -11 -13
4 4 3 6 6 6 6 6 7 7 7 6 5 5 4 4 3 3 2 2 2 2 1 1 0 -0 -1 -2 -2 -3 -4 -5 -5 -6 -8 -8 -10 -11 -10 -10 -10 -11 -12 -14
3 3 5 5 6 5 5 6 5 5 5 4 4 4 4 3 2 2 2 1 1 0 -0 -1 -1 -1 -2 -2 -3 -5 -5 -6 -7 -9 -9 -10 -11 -11 -11 -10 -10 -11 -12 -14
3 3 2 4 5 5 5 5 3 4 3 3 3 3 2 2 1 1 0 -0 -1 -1 -2 -2 -2 -3 -3 -4 -5 -5 -8 -9 -9 -9 -10 -12 -12 -11 -10 -10 -11 -12 -13 -13
2 2 3 4 4 4 4 3 3 3 3 2 2 1 1 1 0 0 0 -0 -1 -2 -2 -2 -3 -3 -4 -4 -5 -4 -7 -6 -9 -9 -10 -12 -12 -10 -10 -10 -11 -12 -12 -13
2 1 2 3 3 3 2 3 2 2 1 1 1 0 1 -0 -1 -1 0 -1 -1 -2 -2 -2 -3 -3 -3 -3 -4 -4 -5 -9 -9 -9 -11 -12 -11 -11 -11 -11 -12 -12 -12 -13
2 3 3 3 2 2 1 1 2 1 0 -0 -1 -1 -1 -1 -1 -2 -1 -2 -1 -2 -2 -3 -3 -4 -4 -4 -4 -7 -9 -9 -9 -10 -11 -11 -11 -11 -11 -12 -12 -12 -13 -13
2 3 2 2 1 1 0 -0 -1 -0 -0 -1 -1 -0 -1 -2 -2 -2 -2 -2 -2 -3 -3 -4 -5 -5 -5 -6 -8 -9 -9 -10 -11 -12 -11 -11 -11 -11 -12 -12 -12 -13 -13 -14
1 2 2 1 1 0 -0 0 -0 -0 -1 -1 -1 -2 -2 -2 -2 -2 -3 -4 -4 -5 -5 -6 -6 -6 -8 -8 -8 -9 -10 -11 -11 -11 -11 -11 -11 -11 -12 -13 -13 -13 -14 -14
2 1 1 1 -0 0 -0 -0 -1 -1 -1 -1 -2 -2 -2 -3 -3 -3 -4 -5 -6 -6 -6 -7 -8 -9 -9 -9 -10 -11 -11 -11 -11 -11 -11 -11 -11 -12 -12 -13 -13 -14 -14 -14
1 1 1 0 0 0 -0 -1 -1 -1 -2 -3 -3 -3 -3 -3 -4 -5 -6 -5 -6 -7 -8 -8 -9 -8 -9 -10 -10 -11 -11 -11 -11 -11 -11 -12 -12 -12 -13 -13 -13 -13 -14 -15
1 1 -0 -0 -0 -0 -1 -1 -2 -3 -3 -4 -4 -4 -4 -5 -5 -5 -6 -7 -8 -8 -9 -8 -9 -10 -11 -11 -11 -11 -11 -11 -12 -12 -12 -12 -13 -13 -13 -13 -14 -14 -14 -14
1 1 -0 -1 -1 -1 -2 -2 -2 -3 -4 -4 -4 -4 -4 -5 -6 -7 -8 -8 -9 -9 -9 -10 -10 -11 -11 -11 -11 -11 -12 -12 -12 -12 -13 -13 -14 -14 -14 -14 -14 -14 -14 -14
0 -0 -1 -1 -1 -2 -3 -3 -4 -4 -4 -4 -5 -6 -6 -7 -8 -8 -9 -9 -9 -10 -10 -10 -11 -11 -11 -11 -12 -12 -12 -13 -13 -13 -13 -13 -14 -14 -14 -15 -15 -15 -15 -15
-1 -1 -1 -2 -3 -3 -4 -4 -4 -5 -5 -6 -6 -7 -8 -9 -9 -9 -9 -10 -10 -10 -11 -11 -11 -11 -12 -12 -12 -13 -13 -13 -13 -14 -14 -14 -14 -15 -15 -16 -16 -16 -16 -16
-2 -2 -3 -3 -4 -4 -5 -5 -5 -6 -7 -8 -8 -9 -9 -9 -9 -10 -10 -11 -11 -12 -12 -11 -12 -12 -12 -13 -13 -13 -13 -13 -14 -14 -14 -15 -15 -15 -16 -16 -16 -16 -16 -16
-3 -3 -4 -5 -5 -6 -6 -6 -7 -8 -8 -9 -9 -9 -10 -10 -11 -11 -11 -12 -12 -12 -12 -12 -12 -13 -13 -13 -13 -13 -13 -14 -14 -14 -15 -15 -16 -16 -16 -16 -16 -16 -16 -16
-5 -5 -6 -6 -7 -7 -8 -8 -9 -9 -9 -10 -10 -10 -11 -11 -12 -12 -12 -12 -12 -12 -12 -12 -13 -13 -13 -13 -13 -14 -14 -15 -15 -15 -16 -16 -16 -16 -16 -16 -16 -16 -17 -17
-7 -7 -7 -8 -8 -9 -9 -9 -9 -10 -10 -10 -11 -11 -11 -12 -12 -12 -12 -12 -12 -13 -13 -13 -13 -13 -13 -13 -14 -14 -15 -15 -16 -16 -17 -17 -17 -17 -17 -17 -17 -17 -17 -17
-8 -8 -8 -9 -9 -9 -10 -10 -10 -10 -11 -11 -11 -12 -12 -12 -13 -13 -13 -13 -13 -13 -13 -13 -13 -14 -14 -15 -15 -16 -16 -16 -17 -17 -18 -18 -18 -17 -17 -17 -17 -17 -17 -17
-9 -9 -9 -10 -10 -10 -10 -11 -11 -11 -12 -12 -12 -13 -13 -13 -13 -13 -13 -13 -13 -14 -14 -14 -15 -16 -16 -16 -16 -17 -17 -17 -18 -18 -19 -18 -18 -17 -17 -17 -17 -17 -18 -18
-10 -10 -10 -11 -11 -11 -11 -12 -12 -12 -13 -13 -13 -13 -14 -14 -14 -14 -14 -14 -15 -15 -16 -16 -17 -17 -17 -17 -18 -18 -19 -19 -19 -19 -19 -19 -19 -19 -19 -18 -18 -18 -18 -18
-11 -11 -11 -12 -12 -12 -12 -13 -13 -13 -14 -14 -14 -14 -14 -14 -14 -15 -15 -15 -16 -17 -17 -17 -17 -18 -18 -18 -19 -20 -20 -21 -21 -21 -20 -20 -20 -20 -19 -19 -19 -19 -19 -19
-11 -12 -12 -12 -12 -13 -13 -14 -14 -14 -14 -14 -15 -15 -14 -15 -15 -16 -16 -17 -17 -18 -18 -18 -18 -19 -19 -20 -21 -21 -22 -22 -22 -22 -22 -21 -21 -21 -20 -20 -20 -20 -19 -19
-12 -12 -13 -13 -13 -14 -14 -14 -15 -15 -15 -15 -15 -15 -15 -16 -16 -17 -17 -18 -18 -19 -19 -19 -20 -20 -21 -21 -22 -22 -22 -23 -23 -23 -23 -22 -22 -22 -21 -21 -21 -20 -20 -20
Height
3102 3103 3103 3103 3104 3104 3105 3106 3108 3109 3108 3108 3107 3106 3105 3104 3102 3103 3105 3104 3103 3103 3099 3094 3092 3090 3089 3087 3085 3083 3081 3079 3074 3069 3066 3062 3058 3054 3051 3048 3045 3040 3034 3029
3099 3100 3100 3101 3101 3102 3102 3102 3103 3104 3104 3106 3101 3101 3100 3100 3101 3099 3099 3101 3101 3099 3095 3091 3087 3084 3083 3081 3077 3076 3077 3073 3067 3062 3057 3052 3049 3047 3045 3042 3037 3031 3027 3023
3097 3098 3097 3097 3096 3097 3098 3099 3100 3100 3101 3101 3099 3097 3096 3096 3096 3094 3094 3092 3092 3091 3089 3087 3083 3079 3077 3074 3071 3069 3070 3065 3059 3054 3049 3046 3043 3042 3038 3033 3030 3026 3021 3017
3094 3095 3096 3092 3092 3092 3093 3094 3095 3096 3097 3096 3092 3092 3093 3091 3090 3090 3088 3086 3084 3083 3082 3080 3077 3073 3070 3069 3065 3062 3061 3056 3048 3043 3039 3036 3033 3033 3032 3028 3024 3020 3016 3012
3092 3092 3092 3089 3090 3090 3089 3092 3089 3089 3089 3089 3087 3090 3092 3086 3085 3084 3083 3081 3079 3077 3074 3072 3070 3068 3065 3063 3059 3055 3049 3043 3040 3038 3034 3032 3031 3027 3025 3023 3018 3012 3008 3005
3089 3090 3089 3087 3086 3087 3087 3089 3086 3086 3086 3086 3085 3085 3085 3082 3080 3078 3077 3076 3074 3072 3069 3066 3063 3061 3057 3054 3050 3046 3040 3034 3032 3030 3027 3027 3024 3023 3019 3015 3011 3006 3000 2998
3085 3086 3085 3085 3084 3085 3087 3090 3083 3084 3083 3082 3082 3082 3079 3076 3074 3072 3070 3068 3066 3065 3062 3059 3056 3052 3050 3044 3040 3034 3028 3024 3025 3023 3022 3021 3021 3018 3013 3007 3002 2998 2995 2992
3083 3083 3083 3081 3081 3084 3083 3081 3081 3080 3079 3077 3076 3074 3073 3071 3069 3066 3062 3062 3058 3054 3052 3051 3048 3045 3040 3035 3028 3025 3021 3020 3020 3019 3017 3017 3015 3011 3005 3001 2995 2990 2987 2985
3080 3080 3078 3078 3078 3078 3077 3076 3076 3075 3073 3072 3070 3069 3067 3065 3062 3058 3056 3052 3049 3048 3045 3043 3040 3036 3031 3025 3021 3018 3017 3016 3015 3014 3013 3010 3006 3002 2997 2994 2989 2984 2981 2979
3076 3077 3076 3075 3075 3074 3072 3071 3071 3069 3068 3066 3064 3062 3061 3058 3054 3049 3049 3043 3040 3039 3037 3034 3032 3028 3022 3017 3017 3017 3015 3012 3010 3009 3006 3002 2998 2995 2991 2987 2982 2979 2975 2971
3070 3071 3072 3073 3068 3066 3066 3065 3064 3063 3061 3059 3058 3056 3053 3049 3046 3043 3041 3037 3033 3029 3027 3025 3023 3020 3017 3016 3013 3010 3008 3007 3004 3001 2997 2995 2991 2987 2984 2981 2977 2973 2969 2965
3066 3064 3066 3065 3059 3062 3060 3059 3059 3057 3054 3053 3051 3048 3045 3042 3038 3035 3032 3030 3026 3023 3019 3015 3014 3013 3012 3010 3007 3005 3003 3000 2997 2994 2991 2988 2984 2981 2977 2974 2971 2967 2963 2960
3060 3059 3059 3056 3055 3055 3054 3052 3051 3049 3047 3045 3042 3040 3037 3034 3030 3027 3024 3021 3018 3015 3013 3011 3010 3008 3005 3002 3000 2999 2996 2994 2990 2987 2984 2981 2977 2972 2970 2967 2963 2959 2956 2952
3054 3055 3050 3051 3048 3047 3048 3046 3044 3042 3040 3037 3035 3032 3029 3026 3023 3020 3017 3015 3012 3011 3009 3007 3004 3002 2999 2997 2995 2993 2990 2987 2984 2980 2977 2972 2969 2965 2961 2957 2954 2951 2947 2944
3046 3047 3045 3044 3042 3041 3040 3038 3036 3033 3032 3029 3027 3025 3022 3019 3017 3015 3013 3011 3010 3007 3005 3002 3000 2998 2994 2991 2989 2985 2982 2979 2976 2972 2968 2965 2961 2957 2953 2949 2944 2941 2938 2936
3038 3038 3038 3037 3036 3034 3032 3030 3028 3027 3025 3023 3021 3019 3017 3015 3014 3012 3010 3008 3006 3003 3000 2997 2995 2991 2988 2985 2981 2978 2974 2970 2967 2962 2958 2955 2952 2947 2942 2939 2935 2932 2928 2926
3030 3030 3030 3029 3028 3027 3025 3024 3023 3021 3019 3018 3016 3014 3013 3011 3010 3008 3005 3003 3000 2997 2994 2991 2988 2985 2981 2978 2974 2969 2965 2960 2957 2952 2947 2944 2939 2935 2931 2927 2923 2920 2917 2915
3023 3022 3022 3022 3021 3021 3020 3019 3018 3016 3015 3013 3012 3010 3009 3007 3005 3002 3000 2997 2994 2990 2987 2984 2981 2977 2973 2969 2964 2959 2954 2949 2945 2940 2936 2930 2926 2923 2919 2916 2912 2909 2907 2904
3017 3016 3016 3016 3016 3016 3016 3014 3013 3012 3011 3009 3007 3006 3003 3001 2999 2996 2994 2990 2987 2983 2980 2977 2973 2968 2963 2958 2952 2947 2941 2935 2930 2925 2921 2916 2912 2910 2907 2905 2902 2899 2897 2894
3012 3012 3012 3013 3013 3012 3011 3010 3009 3007 3006 3004 3002 3000 2998 2996 2993 2990 2987 2983 2979 2975 2971 2967 2961 2955 2949 2944 2937 2931 2924 2918 2912 2908 2905 2902 2899 2896 2894 2892 2890 2888 2886 2884
3008 3009 3009 3009 3009 3008 3007 3006 3004 3002 3001 2999 2997 2995 2993 2990 2987 2983 2980 2976 2971 2966 2962 2955 2947 2942 2935 2927 2921 2914 2908 2902 2897 2892 2889 2886 2885 2884 2883 2881 2880 2878 2877 2875
3004 3005 3005 3005 3005 3004 3003 3001 3000 2998 2996 2994 2992 2989 2986 2983 2980 2976 2971 2966 2961 2955 2948 2941 2934 2926 2919 2913 2906 2900 2894 2889 2884 2880 2877 2875 2873 2872 2870 2870 2868 2868 2868 2867
3001 3001 3001 3001 3001 3000 2998 2997 2995 2993 2990 2987 2985 2983 2979 2975 2971 2966 2961 2954 2948 2941 2934 2927 2921 2914 2907 2901 2894 2888 2882 2877 2873 2869 2867 2866 2865 2862 2859 2860 2860 2858 2858 2857
2998 2997 2997 2997 2996 2995 2993 2991 2988 2986 2984 2981 2977 2974 2970 2966 2962 2956 2949 2942 2936 2930 2923 2916 2910 2903 2896 2889 2883 2877 2872 2868 2864 2861 2858 2856 2855 2854 2851 2851 2849 2848 2847 2847
2993 2993 2993 2992 2990 2989 2986 2984 2981 2979 2976 2973 2970 2965 2961 2956 2951 2944 2937 2931 2925 2918 2912 2905 2899 2893 2886 2879 2874 2868 2863 2859 2856 2853 2850 2847 2845 2844 2843 2841 2839 2838 2838 2838
2988 2988 2987 2985 2983 2982 2979 2977 2975 2972 2968 2965 2961 2955 2950 2945 2939 2933 2927 2921 2914 2908 2902 2895 2888 2883 2877 2871 2866 2860 2855 2851 2848 2845 2843 2840 2838 2836 2834 2832 2831 2830 2828 2827
2983 2981 2980 2978 2977 2975 2972 2970 2967 2963 2959 2955 2950 2944 2939 2934 2928 2923 2917 2911 2906 2900 2893 2887 2881 2876 2870 2864 2859 2854 2849 2844 2840 2837 2834 2831 2829 2827 2825 2824 2822 2821 2819 2817
Wind_Speed
19 19 8 11 9 12 18 19 20 18 16 15 13 7 9 8 14 14 14 25 25 31 35 40 46 45 42 41 42 42 40 39 42 43 44 35 32 33 32 35 37 37 38 36
15 15 16 17 17 17 17 17 20 21 21 15 15 15 14 16 13 18 17 16 26 31 35 41 47 45 39 39 41 41 37 40 45 45 44 40 37 31 30 34 36 38 37 34
12 11 13 15 22 23 21 19 19 19 17 15 15 12 10 12 12 17 21 21 21 28 32 34 35 36 36 38 40 41 37 42 44 50 46 32 27 27 30 34 37 38 36 34
7 5 1 14 9 10 12 13 16 18 18 13 14 13 16 19 15 14 18 20 21 22 23 28 31 35 36 37 41 42 40 41 51 49 39 36 26 28 31 34 34 33 33 32
6 9 12 16 9 5 4 5 6 8 10 8 12 13 9 16 13 17 18 21 21 25 28 26 26 30 33 36 40 42 45 47 48 35 28 20 24 25 30 34 34 33 31 32
7 3 4 4 9 6 5 5 3 7 6 10 13 17 15 17 19 21 18 20 20 22 24 26 27 28 34 39 43 45 39 37 40 25 19 19 22 28 32 35 34 31 32 32
11 7 6 8 11 13 5 5 10 10 14 19 18 15 20 24 25 25 24 23 25 23 24 25 30 34 37 42 44 50 50 53 34 25 19 20 26 30 34 34 30 28 30 28
11 6 8 11 9 4 8 9 14 20 18 22 20 22 21 21 20 21 30 25 23 29 33 34 37 40 45 47 52 52 50 35 25 19 17 22 26 32 33 29 28 29 29 28
8 2 8 8 10 10 13 16 20 19 16 15 16 18 20 22 22 26 30 32 34 34 34 35 38 42 45 50 53 41 35 25 18 17 19 24 30 31 29 28 27 27 27 26
13 7 6 8 11 12 12 9 8 15 19 17 21 24 23 24 28 34 34 36 36 33 32 32 33 38 43 47 38 29 19 17 17 17 23 28 29 27 27 27 28 27 26 26
10 11 11 9 12 12 16 19 21 22 24 26 25 26 28 33 35 34 32 31 32 34 36 35 33 32 29 25 21 17 18 15 19 24 26 28 30 28 25 26 28 27 25 25
12 13 16 16 21 21 25 27 26 25 26 25 27 31 33 31 31 30 29 27 30 29 30 26 22 20 19 17 18 15 17 22 25 27 28 29 30 28 28 27 27 27 27 26
19 20 20 24 27 28 28 27 25 25 26 31 33 31 28 29 29 30 27 28 24 20 16 14 14 20 20 15 16 21 24 26 28 29 30 31 31 31 31 29 29 28 26 25
19 20 26 26 29 26 25 26 26 30 32 29 30 29 30 27 24 21 20 19 18 17 17 16 15 15 19 22 23 25 26 28 30 31 31 32 32 32 34 34 31 30 28 27
25 25 26 26 26 27 28 29 30 27 26 28 29 26 22 20 19 19 18 17 18 18 20 20 19 21 25 26 26 27 29 31 32 33 33 33 33 33 33 34 35 34 31 28
29 28 27 28 29 28 27 24 24 25 25 21 18 18 18 18 18 18 18 18 19 20 22 24 24 26 26 27 28 30 32 34 35 37 38 36 38 38 38 37 36 36 35 32
28 28 27 25 23 22 22 22 19 17 17 17 18 18 18 18 19 20 20 20 21 23 24 26 27 28 30 31 33 35 37 39 40 39 39 42 43 43 41 41 40 39 34 32
26 25 23 22 21 18 14 14 15 16 17 17 18 18 19 19 19 19 21 22 23 25 28 30 31 33 34 35 37 40 42 44 45 45 44 46 46 42 41 38 37 33 32 30
22 19 15 12 11 12 13 14 14 15 16 17 18 19 20 21 22 23 24 25 27 30 32 33 35 37 40 42 44 48 50 51 51 51 48 45 41 39 36 35 34 34 33 30
15 11 10 10 11 11 12 14 16 16 17 18 19 21 22 23 24 26 27 29 32 36 39 41 44 47 50 51 52 52 52 53 52 51 48 43 43 41 39 34 36 37 29 27
10 9 10 10 11 13 15 17 18 19 20 21 22 23 25 26 28 31 33 36 39 42 44 48 51 53 51 52 51 50 48 46 44 42 41 40 39 35 37 42 38 28 24 24
10 10 11 13 14 16 17 18 20 21 23 24 25 26 27 29 32 35 38 42 45 48 50 52 53 51 50 49 47 45 44 41 39 35 29 31 31 29 29 34 30 21 24 28
11 13 14 16 17 18 20 21 22 23 24 26 26 28 31 34 38 42 45 48 50 51 51 50 48 47 46 45 44 44 42 39 34 32 30 29 28 32 29 33 38 30 25 27
13 15 16 18 20 21 22 22 23 24 24 27 30 33 37 41 44 47 48 49 48 47 46 46 44 43 43 43 43 41 38 34 30 28 26 27 28 32 35 34 26 25 23 25
16 17 18 21 22 22 23 23 25 27 28 31 34 38 42 45 47 48 48 47 45 44 43 43 42 41 42 41 40 37 34 30 26 24 22 22 22 24 24 24 22 22 22 23
18 19 21 22 22 23 24 25 26 29 33 36 40 44 47 48 47 45 45 44 43 42 41 40 41 41 39 37 35 34 32 30 28 26 25 25 24 23 23 22 22 22 23 25
20 21 22 22 23 24 26 28 30 33 38 41 45 47 48 46 45 43 42 41 40 39 38 38 38 37 35 34 32 32 31 30 29 27 28 28 27 27 27 27 27 27 28 29
Wind_Direction
254 250 264 279 254 240 239 241 242 257 260 277 307 296 270 280 285 273 247 259 252 249 252 259 269 278 280 276 278 280 278 271 274 280 288 288 291 292 306 314 312 315 323 323
255 255 269 268 262 259 261 257 254 262 264 279 288 276 273 269 263 260 275 248 255 254 254 258 267 278 285 283 282 281 275 270 270 278 282 285 287 303 315 312 318 323 322 322
247 250 253 269 260 259 255 255 258 261 271 280 299 292 286 290 285 280 293 290 270 259 263 271 279 285 284 283 281 284 277 267 270 275 279 280 298 318 316 320 324 318 318 316
241 234 270 273 245 238 243 253 259 268 270 278 269 266 282 303 310 304 280 293 282 277 280 288 290 284 279 281 283 283 274 264 268 274 276 285 307 324 322 319 314 315 311 307
204 216 261 276 261 244 237 255 265 239 239 249 268 278 315 309 280 283 281 289 286 287 296 297 293 285 282 280 278 273 268 264 269 271 283 307 322 315 316 313 314 310 306 301
212 216 224 237 236 259 255 233 238 250 261 287 301 306 301 281 291 292 290 293 290 281 281 292 289 268 267 264 259 263 253 257 268 269 290 314 322 318 316 312 307 305 301 299
222 233 252 251 252 264 238 217 256 277 294 293 289 276 277 285 296 295 289 290 292 281 265 259 259 258 252 255 263 267 257 265 262 275 303 327 316 314 308 304 305 304 307 311
205 228 253 250 264 234 220 238 275 287 289 294 293 295 300 302 298 289 298 306 288 278 283 282 273 267 272 274 278 287 276 261 270 301 323 313 311 305 303 307 310 313 315 310
222 269 249 238 227 257 275 276 286 293 296 293 289 288 290 297 298 286 299 293 296 298 298 295 290 282 279 281 283 266 260 272 300 329 315 306 302 306 309 310 313 313 312 311
241 263 261 280 267 275 280 284 271 285 294 287 289 298 303 300 292 298 303 301 306 304 303 300 297 288 278 267 269 280 299 326 339 312 302 300 306 309 308 310 310 312 311 310
262 271 269 263 258 238 247 272 285 295 293 295 300 299 299 297 301 303 303 304 307 306 306 303 294 290 289 292 286 312 342 325 296 293 298 305 308 310 310 306 302 304 306 306
262 251 251 245 252 264 274 285 292 293 291 293 296 296 301 302 302 302 303 300 304 305 301 304 313 305 294 308 333 329 299 289 294 299 302 305 307 307 306 303 298 300 302 300
249 267 273 266 273 278 284 290 293 294 293 300 300 307 307 306 306 306 298 301 310 317 322 315 303 308 319 319 294 287 292 295 297 299 303 306 306 306 304 302 302 302 300 297
271 273 268 273 280 284 288 290 290 293 296 297 303 306 307 303 308 312 317 321 321 314 307 302 301 298 290 289 291 291 293 295 298 300 300 303 305 305 305 304 302 302 304 302
279 277 274 278 278 282 286 288 290 294 298 301 302 306 311 315 320 322 317 310 302 297 295 297 300 296 294 298 300 300 298 298 299 299 301 300 300 301 302 302 301 302 302 301
274 275 277 277 280 283 285 288 292 296 300 306 311 315 321 320 316 309 303 302 301 305 304 302 301 300 302 301 300 298 297 298 299 299 300 297 299 302 303 302 300 300 300 299
273 277 280 279 279 280 283 289 295 298 302 310 316 315 311 307 305 306 306 307 305 302 299 301 302 304 305 304 302 299 298 297 298 298 295 296 299 300 302 302 302 301 298 293
276 281 281 277 277 279 282 286 294 301 306 309 308 309 308 307 306 305 306 307 306 305 305 307 308 305 302 300 297 297 297 297 297 295 292 294 297 296 296 296 298 295 304 298
277 277 266 259 262 274 286 294 301 307 309 310 309 308 307 308 309 310 311 311 308 307 306 307 307 305 305 303 302 301 299 297 296 295 295 295 293 290 291 297 296 290 298 297
274 257 262 274 283 291 301 306 309 310 310 310 311 312 312 311 311 310 311 312 310 310 312 312 310 307 306 306 304 302 299 297 296 293 292 285 285 286 290 289 296 292 291 291
260 270 274 284 294 301 306 309 310 312 312 311 310 308 306 307 310 310 311 309 310 310 311 310 309 311 309 307 308 307 305 303 301 298 293 288 288 284 273 283 287 290 291 286
262 270 282 292 298 302 305 308 309 308 307 305 305 306 306 307 307 310 311 312 313 314 313 313 313 313 313 313 313 312 311 310 306 301 300 297 294 288 280 281 270 292 276 281
268 279 286 292 296 301 305 306 305 304 304 304 304 304 306 310 313 314 314 315 316 316 315 315 315 315 314 315 315 315 314 312 306 299 287 292 287 290 264 284 276 274 276 277
275 282 286 291 297 302 303 303 303 303 303 303 305 308 311 313 315 316 317 317 316 316 316 316 317 317 317 318 318 317 314 311 306 302 295 286 282 280 281 275 265 270 272 276
275 281 290 297 299 301 302 302 301 303 304 306 310 310 312 314 316 318 317 317 318 318 318 318 319 321 323 321 320 318 315 310 307 304 299 294 289 280 272 273 275 272 275 284
280 287 292 295 299 301 301 301 301 303 305 308 311 312 314 316 317 317 318 319 320 320 321 322 323 325 324 323 323 322 320 314 304 298 294 291 289 288 286 284 283 283 285 287
281 289 293 297 299 299 299 300 303 305 307 311 313 314 316 316 317 318 319 319 320 321 323 325 326 325 326 326 326 325 323 319 315 308 301 295 292 290 288 286 287 286 286 284